GW1920 Weather Reports


Display with metric or nautical units.
time (UTC)temp
F
wind
direction
speed
MPH
gust
MPH
rain 1hr
in
rain 24hr
in
rain mn
in
humidity
%
barometer
mb
20260509163958 54 348 0.0 0.0 0.00 0.00 0.00 93 1013.1
20260509163456 54 357 0.0 0.0 0.00 0.00 0.00 93 1013.3
20260509162955 54 357 0.0 0.0 0.00 0.00 0.00 94 1013.3
20260509162454 54 3 0.0 0.0 0.00 0.00 0.00 95 1013.2
20260509161950 53 353 0.0 0.0 0.00 0.00 0.00 95 1013.3
20260509161446 53 358 0.0 0.0 0.00 0.00 0.00 98 1013.3
20260509160941 53 18 0.0 0.0 0.00 0.00 0.00 98 1013.3
20260509160438 53 17 0.0 0.0 0.00 0.00 0.00 99 1013.3
20260509155933 53 344 0.0 0.0 0.00 0.00 0.00 99 1013.6
20260509155430 52 340 0.0 0.0 0.00 0.00 0.00 99 1013.5
20260509154926 52 344 0.0 0.0 0.00 0.00 0.00 99 1013.4
20260509154423 52 0 0.0 0.0 0.00 0.00 0.00 99 1013.4
20260509153920 52 350 0.0 0.0 0.00 0.00 0.00 99 1013.3
20260509153417 51 342 0.0 0.0 0.00 0.00 0.00 99 1013.6
20260509152914 51 13 0.0 0.0 0.00 0.00 0.00 99 1013.6
20260509152409 51 13 0.0 0.0 0.00 0.00 0.00 99 1013.4
20260509151907 51 13 0.0 0.0 0.00 0.00 0.00 99 1013.6
20260509151403 51 13 0.0 0.0 0.00 0.00 0.00 99 1013.5
20260509150901 51 13 0.0 0.0 0.00 0.00 0.00 99 1013.4
20260509150359 50 14 0.0 0.0 0.00 0.00 0.00 99 1013.5
20260509145856 50 347 0.0 0.0 0.00 0.00 0.00 99 1013.5
20260509145350 50 347 0.0 0.0 0.00 0.00 0.00 99 1013.4
20260509144847 50 347 0.0 0.0 0.00 0.00 0.00 99 1013.3
20260509144344 50 349 0.0 0.0 0.00 0.00 0.00 99 1013.1
20260509143841 50 348 0.0 0.0 0.00 0.00 0.00 99 1013.2
20260509143338 50 348 0.0 0.0 0.00 0.00 0.00 99 1013.1
20260509142834 50 347 0.0 0.0 0.00 0.00 0.00 99 1013.3
20260509142331 49 347 0.0 0.0 0.00 0.00 0.00 99 1013.4
20260509141827 49 352 0.0 0.0 0.00 0.00 0.00 99 1013.4
20260509141328 49 354 0.0 0.0 0.00 0.00 0.00 99 1013.7
20260509140820 49 340 0.0 0.0 0.00 0.00 0.00 99 1013.5
20260509140317 49 10 0.0 0.0 0.00 0.00 0.00 99 1013.5
20260509135815 49 21 0.0 0.0 0.00 0.00 0.00 99 1013.4
20260509135312 49 6 0.0 0.0 0.00 0.00 0.00 99 1013.5
20260509134810 49 6 0.0 0.0 0.00 0.00 0.00 99 1013.3
20260509134307 49 7 0.0 0.0 0.00 0.00 0.00 99 1013.4
20260509133804 49 5 0.0 0.0 0.00 0.00 0.00 99 1013.4
20260509133300 49 13 0.0 0.0 0.00 0.00 0.00 99 1013.2
20260509132759 49 9 0.0 0.0 0.00 0.00 0.00 99 1013.3
20260509132258 48 8 0.0 0.0 0.00 0.00 0.00 99 1013.2
20260509131753 48 8 0.0 0.0 0.00 0.00 0.00 99 1013.1
20260509131250 48 353 0.0 0.0 0.00 0.00 0.00 99 1013.3
20260509130747 48 10 0.0 0.0 0.00 0.00 0.00 99 1013.0
20260509130242 48 16 0.0 0.0 0.00 0.00 0.00 99 1013.4
20260509125739 48 8 0.0 0.0 0.00 0.00 0.00 99 1013.3
20260509125236 48 8 0.0 0.0 0.00 0.00 0.00 99 1013.3
20260509124732 48 353 0.0 0.0 0.00 0.00 0.00 99 1013.3
20260509124229 48 359 0.0 0.0 0.00 0.00 0.00 99 1013.1
20260509123727 48 13 0.0 0.0 0.00 0.00 0.00 99 1012.9
20260509123224 48 1 0.0 0.0 0.00 0.00 0.00 99 1013.2
20260509122720 48 11 0.0 0.0 0.00 0.00 0.00 99 1013.3
20260509122217 48 6 0.0 0.0 0.00 0.00 0.00 99 1013.4
20260509121713 48 16 0.0 0.0 0.00 0.00 0.00 99 1013.4
20260509121211 48 5 0.0 0.0 0.00 0.00 0.00 99 1013.2
20260509120709 48 16 0.0 0.0 0.00 0.00 0.00 99 1013.4
20260509120207 48 15 0.0 0.0 0.00 0.00 0.00 99 1013.4
20260509115704 48 15 0.0 0.0 0.00 0.00 0.00 99 1013.3
20260509115201 48 13 0.0 0.0 0.00 0.00 0.00 99 1013.3
20260509114700 47 23 0.0 0.0 0.00 0.00 0.00 99 1013.3
20260509114158 47 34 0.0 0.0 0.00 0.00 0.00 99 1013.0
20260509113656 47 35 0.0 0.0 0.00 0.00 0.00 99 1013.2
20260509113153 47 35 0.0 0.0 0.00 0.00 0.00 99 1013.4
20260509112650 47 35 0.0 0.0 0.00 0.00 0.00 99 1013.4
20260509112147 47 36 0.0 0.0 0.00 0.00 0.00 99 1013.4
20260509111644 46 34 0.0 0.0 0.00 0.00 0.00 99 1013.5
20260509111141 46 31 0.0 0.0 0.00 0.00 0.00 99 1013.4
20260509110638 46 31 0.0 0.0 0.00 0.00 0.00 99 1013.7
20260509110135 46 31 0.0 0.0 0.00 0.00 0.00 99 1013.7
20260509105633 46 31 0.0 0.0 0.00 0.00 0.00 99 1013.7
20260509105130 46 31 0.0 0.0 0.00 0.00 0.00 99 1013.6
20260509104627 46 31 0.0 0.0 0.00 0.00 0.00 99 1013.7
20260509104124 46 31 0.0 0.0 0.00 0.00 0.00 99 1013.5
20260509103622 45 31 0.0 0.0 0.00 0.00 0.00 99 1013.8
20260509103120 45 31 0.0 0.0 0.00 0.00 0.00 99 1014.1
20260509102617 45 31 0.0 0.0 0.00 0.00 0.00 99 1014.0
20260509102114 45 31 0.0 0.0 0.00 0.00 0.00 99 1014.0
20260509101610 45 31 0.0 0.0 0.00 0.00 0.00 99 1014.1
20260509101107 45 31 0.0 0.0 0.00 0.00 0.00 99 1014.0
20260509100604 45 31 0.0 0.0 0.00 0.00 0.00 99 1014.3
20260509095557 45 31 0.0 0.0 0.00 0.00 0.00 99 1014.3
20260509095055 45 31 0.0 0.0 0.00 0.00 0.00 99 1014.0
20260509094551 45 31 0.0 0.0 0.00 0.00 0.00 99 1014.2
20260509094049 45 31 0.0 0.0 0.00 0.00 0.00 99 1014.2
20260509093547 45 31 0.0 0.0 0.00 0.00 0.00 99 1014.3
20260509093044 45 31 0.0 0.0 0.00 0.00 0.00 99 1014.3
20260509092542 45 31 0.0 0.0 0.00 0.00 0.00 99 1014.2
20260509092040 45 31 0.0 0.0 0.00 0.00 0.00 99 1014.4
20260509091537 45 31 0.0 0.0 0.00 0.00 0.00 99 1014.5
20260509091034 45 31 0.0 0.0 0.00 0.00 0.00 99 1014.3
20260509090531 45 31 0.0 0.0 0.00 0.00 0.00 99 1014.5
20260509090029 45 31 0.0 0.0 0.00 0.00 0.00 99 1014.4
20260509085526 45 31 0.0 0.0 0.00 0.00 0.00 99 1014.2
20260509085022 45 31 0.0 0.0 0.00 0.00 0.00 99 1014.3
20260509084519 45 31 0.0 0.0 0.00 0.00 0.00 99 1014.7
20260509084016 45 31 0.0 0.0 0.00 0.00 0.00 99 1014.8
20260509083513 45 31 0.0 0.0 0.00 0.00 0.00 99 1014.8
20260509083010 45 31 0.0 0.0 0.00 0.00 0.00 99 1015.1
20260509082508 45 31 0.0 0.0 0.00 0.00 0.00 99 1014.8
20260509082004 45 31 0.0 0.0 0.00 0.00 0.00 99 1014.9
20260509081502 45 31 0.0 0.0 0.00 0.00 0.00 99 1015.0
20260509080958 45 31 0.0 0.0 0.00 0.00 0.00 99 1014.9
20260509080456 45 31 0.0 0.0 0.00 0.00 0.00 99 1015.0
20260509075954 45 31 0.0 0.0 0.00 0.00 0.00 99 1014.8
20260509075451 45 31 0.0 0.0 0.00 0.00 0.00 99 1014.8
20260509074949 45 31 0.0 0.0 0.00 0.00 0.00 99 1014.9
20260509074446 46 31 0.0 0.0 0.00 0.00 0.00 99 1015.0
20260509073942 46 31 0.0 0.0 0.00 0.00 0.00 99 1015.2
20260509073439 46 29 0.0 0.0 0.00 0.00 0.00 99 1015.2
20260509072935 46 29 0.0 0.0 0.00 0.00 0.00 99 1015.3
20260509072432 46 30 0.0 0.0 0.00 0.00 0.00 99 1014.9
20260509071929 46 29 0.0 0.0 0.00 0.00 0.00 99 1015.0
20260509071426 46 29 0.0 0.0 0.00 0.00 0.00 99 1015.0
20260509070923 46 29 0.0 0.0 0.00 0.00 0.00 99 1015.3
20260509070420 46 29 0.0 0.0 0.00 0.00 0.00 99 1015.2
20260509065915 46 29 0.0 0.0 0.00 0.01 0.01 99 1015.0
20260509065412 46 29 0.0 0.0 0.00 0.01 0.01 99 1015.3
20260509064908 46 29 0.0 0.0 0.00 0.01 0.01 99 1015.1
20260509064406 46 29 0.0 0.0 0.00 0.01 0.01 99 1015.2
20260509063903 46 28 0.0 0.0 0.00 0.01 0.01 99 1015.2
20260509063359 46 29 0.0 0.0 0.00 0.01 0.01 99 1015.3
20260509062856 46 29 0.0 0.0 0.00 0.01 0.01 99 1015.5
20260509062353 46 28 0.0 0.0 0.00 0.01 0.01 99 1015.6
20260509061851 47 42 0.0 0.0 0.00 0.01 0.01 99 1015.6
20260509061349 47 42 0.0 0.0 0.00 0.01 0.01 99 1015.6
20260509060845 47 42 0.0 0.0 0.00 0.01 0.01 99 1015.8
20260509060342 47 42 0.0 0.0 0.00 0.01 0.01 99 1015.7
20260509055837 47 43 0.0 0.0 0.00 0.01 0.01 99 1015.6
20260509055333 47 45 0.0 0.0 0.00 0.01 0.01 99 1016.0
20260509054831 47 45 0.0 0.0 0.00 0.01 0.01 99 1015.5
20260509054327 47 31 0.0 0.0 0.00 0.01 0.01 99 1015.7
20260509053826 47 31 0.0 0.0 0.00 0.01 0.01 99 1015.8
20260509053322 47 31 0.0 0.0 0.00 0.01 0.01 99 1015.9
20260509052821 47 20 0.0 0.0 0.00 0.01 0.01 99 1015.7
20260509052318 47 15 0.0 0.0 0.00 0.01 0.01 99 1016.3
20260509051815 48 15 0.0 0.0 0.00 0.01 0.01 99 1016.0
20260509051313 48 21 0.0 0.0 0.00 0.01 0.01 99 1016.1
20260509050810 48 33 0.0 0.0 0.00 0.01 0.01 99 1016.1
20260509050306 48 24 0.0 0.0 0.00 0.01 0.01 99 1016.2
20260509045804 48 9 0.0 0.0 0.00 0.01 0.01 99 1016.1
20260509045300 48 8 0.0 0.0 0.00 0.01 0.01 99 1016.1
20260509044757 48 8 0.0 0.0 0.00 0.01 0.01 99 1016.1
20260509044255 49 6 0.0 0.0 0.00 0.01 0.01 99 1016.1
20260509043751 49 7 0.0 0.0 0.00 0.01 0.01 99 1015.7
20260509043247 49 6 0.0 0.0 0.00 0.01 0.01 99 1015.6
20260509042743 49 37 0.0 0.0 0.00 0.01 0.01 99 1015.7
20260509042240 49 33 0.0 0.0 0.00 0.01 0.01 99 1015.7
20260509041737 49 33 0.0 0.0 0.00 0.01 0.01 99 1015.6
20260509041234 50 32 0.0 0.0 0.00 0.01 0.01 98 1015.7
20260509040732 50 26 0.0 0.0 0.00 0.01 0.01 98 1015.9
20260509040229 50 26 0.0 0.0 0.00 0.01 0.01 98 1015.6
20260509035725 50 26 0.0 0.0 0.00 0.01 0.01 98 1015.5
20260509035222 50 26 0.0 0.0 0.00 0.01 0.01 97 1015.4
20260509034720 50 26 0.0 0.0 0.00 0.01 0.01 97 1015.5
20260509034217 51 26 0.0 0.0 0.00 0.01 0.01 97 1015.5
20260509033714 51 27 0.0 0.0 0.00 0.01 0.01 96 1015.5
20260509033211 51 25 0.0 0.0 0.00 0.01 0.01 96 1015.4
20260509032708 52 28 0.0 0.0 0.00 0.01 0.01 95 1015.5
20260509032205 52 51 1.0 1.0 0.00 0.01 0.01 94 1015.5
20260509031702 52 29 0.0 0.0 0.00 0.01 0.01 94 1015.5
20260509031200 52 24 0.0 0.0 0.00 0.01 0.01 93 1015.5
20260509030658 53 22 0.0 0.0 0.00 0.01 0.01 93 1015.5
20260509030155 53 24 0.0 0.0 0.00 0.01 0.01 92 1015.4
20260509025651 53 6 0.0 0.0 0.00 0.01 0.01 92 1015.4
20260509025147 53 0 0.0 0.0 0.00 0.01 0.01 91 1015.3
20260509024642 54 353 0.0 0.0 0.00 0.01 0.01 91 1015.5
20260509024138 54 7 0.0 0.0 0.00 0.01 0.01 90 1015.3
20260509023637 54 347 0.0 0.0 0.00 0.01 0.01 90 1015.3
20260509023133 55 335 0.0 0.0 0.00 0.01 0.01 89 1015.5
20260509022629 55 322 1.0 1.0 0.00 0.01 0.01 87 1015.4
20260509022128 55 313 1.0 1.0 0.00 0.01 0.01 87 1015.5
20260509021624 55 335 0.0 1.0 0.00 0.01 0.01 87 1015.6
20260509021121 55 302 1.0 1.0 0.00 0.01 0.01 86 1015.6
20260509020620 55 285 2.0 2.0 0.00 0.01 0.01 86 1015.6
20260509020116 56 336 0.0 0.0 0.00 0.01 0.01 87 1015.4
20260509015615 56 341 0.0 1.0 0.00 0.01 0.01 86 1015.5
20260509015112 56 342 1.0 1.0 0.00 0.01 0.01 86 1015.5
20260509014608 56 316 2.0 2.0 0.00 0.01 0.01 86 1015.4
20260509014105 56 281 0.0 0.0 0.00 0.01 0.01 87 1015.1
20260509013602 55 343 1.0 1.0 0.00 0.01 0.01 87 1015.4
20260509013057 55 323 0.0 0.0 0.00 0.01 0.01 86 1015.5
20260509012555 55 330 0.0 1.0 0.00 0.01 0.01 87 1015.2
20260509012051 55 326 1.0 1.0 0.00 0.01 0.01 87 1015.3
20260509011549 55 345 1.0 1.0 0.00 0.01 0.01 86 1015.3
20260509011046 56 339 1.0 1.0 0.00 0.01 0.01 86 1015.4
20260509010544 56 331 1.0 2.0 0.00 0.01 0.01 86 1015.3
20260509010040 55 340 1.0 1.0 0.00 0.01 0.01 86 1015.5
20260509005538 56 312 3.0 3.0 0.00 0.01 0.01 86 1015.6
20260509005033 56 343 2.0 2.0 0.00 0.01 0.01 86 1015.4
20260509004530 56 311 2.0 2.0 0.00 0.01 0.01 85 1015.7
20260509004027 56 341 1.0 2.0 0.00 0.01 0.01 85 1015.8
20260509003525 56 322 1.0 1.0 0.00 0.01 0.01 85 1015.7
20260509003022 56 335 1.0 1.0 0.00 0.01 0.01 85 1015.7
20260509002519 56 324 2.0 2.0 0.00 0.01 0.01 85 1015.8
20260509002016 56 343 1.0 2.0 0.00 0.01 0.01 85 1015.8
20260509001514 56 332 3.0 3.0 0.00 0.01 0.01 85 1015.7
20260509001010 57 341 1.0 1.0 0.00 0.01 0.01 84 1015.8
20260509000508 57 276 2.0 3.0 0.00 0.01 0.01 83 1015.8
20260509000004 57 335 2.0 2.0 0.00 0.01 0.01 84 1015.7
20260508235502 57 318 2.0 2.0 0.00 0.01 0.01 84 1015.8
20260508234958 57 346 1.0 1.0 0.00 0.01 0.01 85 1015.6
20260508234455 57 342 1.0 2.0 0.00 0.01 0.01 84 1015.8
20260508233952 57 339 0.0 1.0 0.00 0.01 0.01 83 1015.8
20260508233452 58 339 1.0 2.0 0.00 0.01 0.01 83 1015.6
20260508232948 58 337 0.0 0.0 0.00 0.01 0.01 82 1015.9
20260508232445 58 336 0.0 1.0 0.00 0.01 0.01 83 1015.8
20260508231942 58 332 1.0 2.0 0.00 0.01 0.01 83 1016.0
20260508231440 58 343 1.0 1.0 0.00 0.01 0.01 82 1016.0
20260508230936 58 327 2.0 2.0 0.00 0.01 0.01 83 1016.0
20260508230433 58 337 2.0 2.0 0.00 0.01 0.01 82 1016.1
20260508225930 57 338 0.0 0.0 0.00 0.01 0.01 84 1015.9
20260508225427 57 340 1.0 1.0 0.00 0.01 0.01 84 1015.8
20260508224924 56 326 2.0 2.0 0.00 0.01 0.01 85 1016.1
20260508224422 57 339 3.0 3.0 0.00 0.01 0.01 85 1016.1
20260508223919 57 347 1.0 1.0 0.00 0.01 0.01 85 1016.2
20260508223417 57 339 2.0 2.0 0.00 0.01 0.01 84 1016.2
20260508222914 57 339 2.0 2.0 0.00 0.01 0.01 84 1016.1
20260508222411 57 347 1.0 1.0 0.00 0.01 0.01 86 1016.0
20260508221908 57 346 2.0 2.0 0.00 0.01 0.01 84 1016.2
20260508221403 57 348 2.0 2.0 0.00 0.01 0.01 85 1016.2
20260508220900 57 349 1.0 1.0 0.00 0.01 0.01 85 1016.1
20260508220356 57 332 2.0 2.0 0.00 0.01 0.01 85 1016.2
20260508215853 58 352 1.0 1.0 0.00 0.01 0.01 85 1016.2
20260508215349 57 314 3.0 3.0 0.00 0.01 0.01 85 1016.4
20260508214846 57 6 0.0 1.0 0.00 0.01 0.01 86 1016.6
20260508214344 57 338 1.0 2.0 0.00 0.01 0.01 86 1016.3
20260508213839 57 343 0.0 1.0 0.00 0.01 0.01 86 1016.4
20260508213336 57 345 0.0 0.0 0.00 0.01 0.01 87 1016.4
20260508212827 57 344 0.0 0.0 0.00 0.01 0.01 87 1016.5
20260508212324 57 338 3.0 3.0 0.00 0.01 0.01 86 1016.5
20260508211820 57 348 1.0 1.0 0.00 0.01 0.01 87 1016.5
20260508211315 57 345 1.0 2.0 0.00 0.01 0.01 86 1016.6
20260508210813 56 349 0.0 0.0 0.00 0.01 0.01 86 1016.6
20260508210310 56 310 3.0 3.0 0.00 0.01 0.01 86 1016.7
20260508205806 57 323 3.0 3.0 0.00 0.01 0.01 86 1016.7
20260508205306 57 342 1.0 1.0 0.00 0.01 0.01 87 1016.4
20260508204759 57 319 3.0 3.0 0.00 0.01 0.01 87 1016.5
20260508204256 56 349 1.0 2.0 0.00 0.01 0.01 86 1016.5
20260508203752 56 342 1.0 1.0 0.00 0.01 0.01 86 1016.3
20260508203248 56 347 1.0 1.0 0.00 0.01 0.01 87 1016.6
20260508202744 55 336 1.0 1.0 0.00 0.01 0.01 88 1016.7
20260508202242 55 341 3.0 3.0 0.00 0.01 0.01 88 1017.0
20260508201739 55 332 1.0 2.0 0.00 0.01 0.01 88 1016.6
20260508201235 55 336 2.0 2.0 0.00 0.01 0.01 87 1016.7
20260508200732 55 335 1.0 1.0 0.00 0.01 0.01 88 1016.9
20260508200228 55 341 1.0 1.0 0.00 0.01 0.01 88 1016.8
20260508195725 55 339 2.0 2.0 0.00 0.01 0.01 88 1016.9
20260508195221 55 346 1.0 1.0 0.00 0.01 0.01 89 1016.9
20260508194718 55 342 1.0 2.0 0.00 0.01 0.01 88 1016.8
20260508194215 55 341 1.0 2.0 0.00 0.01 0.01 89 1016.9
20260508193712 55 343 1.0 1.0 0.00 0.01 0.01 89 1017.0
20260508193208 55 340 1.0 2.0 0.00 0.01 0.01 89 1016.9
20260508192705 54 351 0.0 1.0 0.00 0.01 0.01 90 1017.0
20260508192202 54 349 1.0 1.0 0.00 0.01 0.01 89 1017.0
20260508191659 54 345 2.0 2.0 0.00 0.01 0.01 89 1016.9
20260508191156 54 349 0.0 0.0 0.00 0.01 0.01 90 1017.0
20260508190653 55 352 1.0 2.0 0.00 0.01 0.01 89 1017.1
20260508190149 54 347 0.0 0.0 0.00 0.01 0.01 89 1017.0
20260508185646 54 348 0.0 0.0 0.00 0.01 0.01 90 1017.3
20260508185144 54 348 0.0 0.0 0.00 0.01 0.01 90 1017.3
20260508184641 54 349 0.0 0.0 0.00 0.01 0.01 90 1017.2
20260508184138 54 345 1.0 2.0 0.00 0.01 0.01 89 1017.2
20260508183635 55 2 0.0 0.0 0.00 0.01 0.01 89 1017.1
20260508183130 54 15 0.0 0.0 0.00 0.01 0.01 89 1017.1
20260508182627 54 1 0.0 0.0 0.00 0.01 0.01 89 1017.2
20260508182124 54 344 0.0 0.0 0.00 0.01 0.01 90 1017.2
20260508181619 54 345 0.0 0.0 0.00 0.01 0.01 92 1017.1
20260508181117 54 345 0.0 0.0 0.00 0.01 0.01 92 1017.0
20260508180613 53 345 0.0 0.0 0.00 0.01 0.01 91 1017.1
20260508180110 53 344 0.0 0.0 0.00 0.01 0.01 91 1017.2
20260508175607 53 344 0.0 0.0 0.00 0.01 0.01 91 1017.0
20260508175104 53 346 1.0 1.0 0.00 0.01 0.01 92 1016.9
20260508174601 53 0 0.0 0.0 0.00 0.01 0.01 94 1017.0
20260508174058 53 344 0.0 0.0 0.00 0.01 0.01 94 1017.1
20260508173555 53 344 0.0 0.0 0.00 0.01 0.01 94 1017.2
20260508173051 53 345 0.0 0.0 0.00 0.01 0.01 94 1017.0
20260508172548 53 345 0.0 0.0 0.00 0.01 0.01 94 1017.0
20260508172044 53 45 1.0 1.0 0.00 0.01 0.01 94 1016.9
20260508171541 53 343 0.0 1.0 0.00 0.01 0.01 95 1016.8
20260508171038 53 358 0.0 0.0 0.00 0.01 0.01 96 1016.7
20260508170535 53 13 0.0 0.0 0.00 0.01 0.01 96 1016.7
20260508170032 53 9 0.0 0.0 0.00 0.01 0.01 95 1016.7
20260508165529 52 22 0.0 0.0 0.00 0.01 0.01 94 1016.8
20260508165026 53 351 0.0 0.0 0.00 0.01 0.01 95 1016.7
20260508164522 53 352 0.0 0.0 0.00 0.01 0.01 94 1016.7